Regional Weather Roundup
Issued by NWS Sterling, VA

Home | Current Version | Previous Version | Graphics & Text | Print | Product List | Glossary On
Versions: 1 2 3 4 5 6 7 8 9 10 11 12 13 14 15 16 17 18 19 20 21 22 23 24 25 26 27 28 29 30 31 32 33 34 35 36 37 38 39 40 41 42 43 44 45 46 47 48 49 50
460
ASUS41 KLWX 220711
RWRLWX

REGIONAL WEATHER ROUNDUP
NATIONAL WEATHER SERVICE BALTIMORE MD/WASHINGTON DC
300 AM EDT SUN APR 22 2018

Note: "FAIR" indicates few or no clouds below 12,000 feet
with no significant weather and/or obstructions to visibility.
 TC=TEMPERATURE CELSIUS

 * =Non NWS site. Station does not report precipitation (e.g. rain,
    snow, etc.), thunder, or fog.

DCZ001-MDZ009-015-VAZ040>042-051-053>054-220800-
WASHINGTON METRO

CITY           SKY/WX    TMP DP  RH WIND       PRES   REMARKS
WASHINGTON NAT CLOUDY    51  39  63 S7        30.38F
DULLES         CLOUDY    47  37  68 S5        30.37F
ANDREWS AFB    FAIR      47  38  70 S6        30.37S
FT BELVOIR     FAIR      46  36  68 CALM      30.38S
QUANTICO       FAIR      52  43  71 S7        30.39F
COLLEGE PARK*  FAIR      46  36  69 CALM      30.37S
LEESBURG*      FAIR      48  37  66 SW5       30.37F
MANASSAS*      FAIR      43  40  89 CALM      30.38F
GAITHERSBURG*  MOCLDY    48  34  58 CALM      30.37F

$$

MDZ006>007-011-014-220800-
BALTIMORE METRO

CITY           SKY/WX    TMP DP  RH WIND       PRES   REMARKS
BWI AIRPORT    CLOUDY    47  36  65 CALM      30.37S
MD SCIENCE CTR   N/A     53  33  46 MISG      30.38S
MARTIN STATE   FAIR      46  43  87 CALM      30.39S
ANNAPOLIS      FAIR      50  39  66 CALM      30.37F
FORT MEADE*    FAIR      41  36  81 CALM      30.39S

$$

MDZ012-015-019>023-220800-
MARYLAND EASTERN SHORE

CITY           SKY/WX    TMP DP  RH WIND       PRES   REMARKS
OCEAN CITY     FAIR      46  42  86 W6        30.39F
SALISBURY      FAIR      44  41  89 S3        30.39S
BAY BRIDGE AP* FAIR      48  39  71 S3        30.38S
CAMBRIDGE*     MOCLDY    45  41  87 CALM      30.39S
EASTON*        FAIR      46  38  72 CALM      30.42S

$$

MDZ017>025-220800-
SOUTHERN MARYLAND

CITY           SKY/WX    TMP DP  RH WIND       PRES   REMARKS
PATUXENT RIVER FAIR      49  41  74 CALM      30.38F
ST INIGOES     FAIR      49  40  71 S3        30.39S
LEONARDTOWN*   FAIR      46  37  71 S3        30.40F

$$

MDZ003>005-220800-
NORTH CENTRAL MARYLAND

CITY           SKY/WX    TMP DP  RH WIND       PRES   REMARKS
FREDERICK*     MOCLDY    45  34  65 CALM      30.39S
HAGERSTOWN APT CLOUDY    51  28  41 E5        30.35S
WESTMINSTER*   MOCLDY    46  34  61 CALM      30.36S

$$

MDZ501>502-220800-
WESTERN MARYLAND

CITY           SKY/WX    TMP DP  RH WIND       PRES   REMARKS
OAKLAND*       FAIR      43  19  39 SE12      30.30F
CUMBERLAND*    FAIR      46  32  57 CALM      30.38S

$$

VAZ025>031-220800-
SHENANDOAH VALLEY

CITY           SKY/WX    TMP DP  RH WIND       PRES   REMARKS
WINCHESTER*    MOCLDY    43  32  65 CALM      30.36S
FRONT ROYAL*   FAIR      43  32  65 CALM      30.34R
LURAY*         FAIR      43  36  75 CALM      30.35R
NEW MARKET*    FAIR      41  37  87 CALM      30.35R
STAUNTON*      FAIR      42  35  75 CALM      30.36S
WAYNESBORO*    FAIR      51  30  44 CALM      30.34S

$$

WVZ021-048>050-054>055-220800-
EASTERN WEST VIRGINIA PANHANDLE

CITY           SKY/WX    TMP DP  RH WIND       PRES   REMARKS
MARTINSBURG    CLOUDY    46  36  68 CALM      30.35S
PETERSBURG*    MOCLDY    41  32  71 CALM      30.34F

$$

VAZ036>039-050-220800-
CENTRAL FOOTHILLS

CITY           SKY/WX    TMP DP  RH WIND       PRES   REMARKS
CHARLOTTESVILL FAIR      53  31  42 NE6       30.35F
CULPEPER*      FAIR      43  36  76 CALM      30.38F
ORANGE*        FAIR      46  39  76 CALM      30.36F
GORDONSVILLE*  FAIR      48  40  72 CALM      30.36S
WARRENTON*     FAIR      43  37  80 CALM      30.36F

$$

VAZ055>057-220800-
NORTH AND CENTRAL PIEDMONT

CITY           SKY/WX    TMP DP  RH WIND       PRES   REMARKS
FREDERICKSBRG* FAIR      49  39  67 SE3       30.37F
STAFFORD*      FAIR      49  38  65 SE3       30.41S

$$

NCZ024-NYZ072-PAZ021-071-VAZ022-071-220800-
OTHER REGIONAL OBSERVATIONS

CITY           SKY/WX    TMP DP  RH WIND       PRES   REMARKS
NEW YORK CITY  FAIR      48  18  30 N10       30.39S
PHILADELPHIA   MOCLDY    45  36  70 CALM      30.39S
PITTSBURGH     MOCLDY    48  28  46 N7        30.33F
ROANOKE        FAIR      47  33  58 CALM      30.33F
RICHMOND       CLOUDY    47  41  80 S6        30.38F
RALEIGH        FAIR      51  40  65 S5        30.36F

$$

ANZ530>537-220800-
MARINE OBSERVATIONS

STATION/POSITION TIME  TEMP    WIND        PRES
                       AIR SEA DIR/SP/G
                 (UTC) (F)     (DEG/KT/KT) (MB)
THOMAS PT LIGHT  0700   50 51  180/  7/  7 1029.5F
BALT KEY BRIDGE  0642          160/  1/  1 1028.6F
COVE POINT       0642          200/  8/  9 1029.5F
LEWISETTA        0636      54  220/  6/  8 1029.0F
SOLOMONS ISLAND  0636      53  200/  4/  5 1028.7F
PINEY POINT      0642          200/  5/  6   N/A

$$





USA.gov is the U.S. government's official web portal to all federal, state and local government web resources and services.